User: anonymous   Login
Location: Albany
(35.0000°S, 118.0000°E)
Time: 19:25:26
(UTC-04:00)
Language:

Cosmos 1758 Rocket - Orbit

View from above orbital plane
View from above orbital plane
View from above satellite
View from above satellite

Ground track
Ground track

The orbit data is extracted from the following two-line orbital elements,

1 16792U 86046B   15111.00848825  .00000790  00000-0  94159-4 0  9991
2 16792 082.4848 223.9109 0024509 011.5992 109.3831 14.82886225558069
Epoch (UTC): 21 April 2015 00:12:13
Eccentricity: 0.0024509
inclination: 82.4848°
perigee height: 603 km
apogee height: 637 km
right ascension of ascending node: 223.9109°
argument of perigee: 11.5992°
revolutions per day: 14.82886225
mean anomaly at epoch: 109.3831°
orbit number at epoch: 55806

The dashed part of the orbit path shows where the satellite is in the earth's shadow,  

DLR